Retour au catalogue

STARLINK-30819

ActifCommunicationsVLEO
NORAD 58179·PAYLOAD·🇺🇸 United States

Lancé Oct 30, 2023 depuis Cape Canaveral Space Force Station

Loading…

Prochains Passages (prochaines 24 heures)

TLE

FraisSource: CelesTrak SupGP

Époque: Sep 14, 2026, 21:59 UTC

1 58179C 23167E   26257.91645833 -.00029372  00000+0 -10639-2 0  2572
2 58179  43.0026 154.7721 0001452 269.7574 126.8498 15.27592572    10

Suivez STARLINK-30819 en temps réel avec AllMySat

Download on the App Store